BEL2SA ESGG-EBBR

Flight info

Callsign BEL2SA
Flight time 1h 23m
Altitude 34000
Route VADIN M852 ALS N872 OGFON KUBAT N872 LILSI/N0440F350 Z310 WOODY
Aircraft A320/M-DE3FGHIJ1LORVWY/H

Departure

Time 2026-05-07 12:05
Airport Göteborg Landvetter Airport (ESGG)

Arrival

Time 2026-05-07 13:28
Airport Brussels Airport (EBBR)
Time Latitude Longitude Altitude Speed Heading
2026-05-07 11:41 57.66887 12.29426 516 ft 0 kts 116°
2026-05-07 11:55 57.66893 12.29404 516 ft 4 kts 116°
2026-05-07 11:55 57.66904 12.29359 516 ft 4 kts 116°
2026-05-07 11:55 57.66913 12.29323 516 ft 4 kts 88°
2026-05-07 11:56 57.66903 12.29286 516 ft 4 kts 33°
2026-05-07 11:56 57.66889 12.29271 516 ft 0 kts 26°
2026-05-07 11:58 57.66891 12.29272 516 ft 2 kts 26°
2026-05-07 11:58 57.66928 12.29307 516 ft 8 kts 26°
2026-05-07 11:58 57.66979 12.29318 516 ft 9 kts 321°
2026-05-07 11:59 57.67009 12.29204 516 ft 10 kts 297°
2026-05-07 11:59 57.67040 12.29073 514 ft 14 kts 280°
2026-05-07 11:59 57.66972 12.28953 514 ft 15 kts 206°
2026-05-07 11:59 57.66872 12.28861 513 ft 17 kts 206°
2026-05-07 12:00 57.66760 12.28758 513 ft 19 kts 206°
2026-05-07 12:00 57.66636 12.28644 512 ft 21 kts 206°
2026-05-07 12:00 57.66547 12.28561 512 ft 22 kts 206°
2026-05-07 12:00 57.66357 12.28392 511 ft 24 kts 206°
2026-05-07 12:01 57.66253 12.28296 510 ft 25 kts 206°
2026-05-07 12:01 57.66093 12.28151 509 ft 23 kts 206°
2026-05-07 12:01 57.65962 12.28033 508 ft 20 kts 206°
2026-05-07 12:01 57.65829 12.27912 506 ft 22 kts 206°
2026-05-07 12:02 57.65683 12.27779 504 ft 24 kts 206°
2026-05-07 12:02 57.65523 12.27633 502 ft 27 kts 206°
2026-05-07 12:02 57.65350 12.27476 497 ft 28 kts 205°
2026-05-07 12:02 57.65201 12.27340 495 ft 23 kts 205°
2026-05-07 12:03 57.65051 12.27204 492 ft 24 kts 206°
2026-05-07 12:03 57.64920 12.27087 484 ft 17 kts 206°
2026-05-07 12:03 57.64894 12.26912 484 ft 18 kts 320°
2026-05-07 12:03 57.65002 12.26818 488 ft 16 kts
2026-05-07 12:04 57.65071 12.26877 489 ft 0 kts 26°
2026-05-07 12:04 57.65074 12.26880 489 ft 7 kts 26°
2026-05-07 12:04 57.65354 12.27134 496 ft 80 kts 26°
2026-05-07 12:04 57.66044 12.27763 508 ft 138 kts 26°
2026-05-07 12:05 57.67000 12.28635 787 ft 159 kts 26°
2026-05-07 12:05 57.67980 12.29588 1495 ft 159 kts 22°
2026-05-07 12:05 57.68998 12.30521 2166 ft 164 kts 22°
2026-05-07 12:05 57.69986 12.31802 2661 ft 188 kts 53°
2026-05-07 12:06 57.70308 12.34262 2940 ft 212 kts 97°
2026-05-07 12:06 57.69926 12.37033 3355 ft 225 kts 107°
2026-05-07 12:06 57.69399 12.39820 4002 ft 228 kts 109°
2026-05-07 12:06 57.68749 12.42501 4771 ft 228 kts 126°
2026-05-07 12:07 57.67569 12.44480 5383 ft 233 kts 152°
2026-05-07 12:07 57.65979 12.45372 5743 ft 248 kts 174°
2026-05-07 12:07 57.64194 12.45754 6117 ft 267 kts 174°
2026-05-07 12:07 57.62322 12.46165 6797 ft 273 kts 178°
2026-05-07 12:08 57.60430 12.45884 7528 ft 275 kts 195°
2026-05-07 12:08 57.58651 12.44588 8266 ft 276 kts 208°
2026-05-07 12:08 57.56933 12.42961 9045 ft 278 kts 209°
2026-05-07 12:08 57.55201 12.41327 9811 ft 281 kts 208°
2026-05-07 12:09 57.53440 12.39671 10384 ft 290 kts 209°
2026-05-07 12:09 57.51569 12.37913 10546 ft 313 kts 209°
2026-05-07 12:09 57.49559 12.36031 10808 ft 330 kts 208°
2026-05-07 12:09 57.47499 12.34047 11371 ft 336 kts 212°
2026-05-07 12:10 57.45481 12.31810 12032 ft 339 kts 213°
2026-05-07 12:10 57.43475 12.29482 12717 ft 342 kts 214°
2026-05-07 12:10 57.41461 12.27092 13387 ft 345 kts 215°
2026-05-07 12:10 57.39434 12.24674 14042 ft 348 kts 215°
2026-05-07 12:11 57.37386 12.22239 14618 ft 351 kts 215°
2026-05-07 12:11 57.35324 12.19803 15210 ft 354 kts 214°
2026-05-07 12:11 57.33232 12.17355 15787 ft 357 kts 214°
2026-05-07 12:11 57.31121 12.14897 16336 ft 360 kts 214°
2026-05-07 12:12 57.28990 12.12424 16892 ft 363 kts 214°
2026-05-07 12:12 57.26837 12.09934 17422 ft 366 kts 214°
2026-05-07 12:12 57.24667 12.07426 17975 ft 369 kts 214°
2026-05-07 12:12 57.22480 12.04899 18506 ft 372 kts 214°
2026-05-07 12:13 57.20275 12.02350 18981 ft 375 kts 214°
2026-05-07 12:13 57.18057 11.99785 19466 ft 377 kts 214°
2026-05-07 12:13 57.15824 11.97212 19956 ft 380 kts 214°
2026-05-07 12:13 57.13577 11.94629 20449 ft 382 kts 214°
2026-05-07 12:14 57.11315 11.92031 20938 ft 384 kts 214°
2026-05-07 12:14 57.09039 11.89422 21410 ft 387 kts 214°
2026-05-07 12:14 57.06745 11.86801 21880 ft 389 kts 214°
2026-05-07 12:14 57.04437 11.84167 22328 ft 392 kts 214°
2026-05-07 12:15 57.02113 11.81516 22756 ft 395 kts 214°
2026-05-07 12:15 56.99774 11.78843 23190 ft 397 kts 215°
2026-05-07 12:15 56.97424 11.76158 23612 ft 400 kts 215°
2026-05-07 12:15 56.95054 11.73462 23975 ft 402 kts 215°
2026-05-07 12:16 56.92673 11.70762 24305 ft 404 kts 214°
2026-05-07 12:16 56.90273 11.68045 24639 ft 406 kts 214°
2026-05-07 12:16 56.87862 11.65320 24957 ft 408 kts 214°
2026-05-07 12:16 56.85442 11.62584 25268 ft 411 kts 214°
2026-05-07 12:17 56.83004 11.59835 25549 ft 413 kts 214°
2026-05-07 12:17 56.80548 11.57071 25834 ft 416 kts 214°
2026-05-07 12:17 56.78077 11.54293 26123 ft 418 kts 214°
2026-05-07 12:17 56.75592 11.51511 26418 ft 420 kts 214°
2026-05-07 12:18 56.73090 11.48718 26702 ft 423 kts 214°
2026-05-07 12:18 56.70578 11.45909 26988 ft 425 kts 214°
2026-05-07 12:18 56.68056 11.43090 27268 ft 427 kts 214°
2026-05-07 12:18 56.65517 11.40261 27544 ft 429 kts 214°
2026-05-07 12:19 56.62965 11.37418 27818 ft 431 kts 214°
2026-05-07 12:19 56.60407 11.34569 28081 ft 433 kts 214°
2026-05-07 12:19 56.57831 11.31703 28326 ft 435 kts 214°
2026-05-07 12:19 56.55244 11.28831 28559 ft 437 kts 213°
2026-05-07 12:20 56.52645 11.25945 28810 ft 439 kts 213°
2026-05-07 12:20 56.50031 11.23050 29048 ft 441 kts 213°
2026-05-07 12:20 56.47404 11.20155 29282 ft 443 kts 213°
2026-05-07 12:20 56.44767 11.17258 29506 ft 445 kts 213°
2026-05-07 12:21 56.42114 11.14352 29714 ft 446 kts 213°
2026-05-07 12:21 56.39456 11.11440 29952 ft 448 kts 213°
2026-05-07 12:21 56.36784 11.08515 30136 ft 450 kts 213°
2026-05-07 12:21 56.34103 11.05585 30297 ft 451 kts 213°
2026-05-07 12:22 56.31412 11.02647 30483 ft 452 kts 213°
2026-05-07 12:22 56.28719 10.99710 30710 ft 452 kts 213°
2026-05-07 12:22 56.25964 10.96980 30934 ft 454 kts 206°
2026-05-07 12:22 56.23058 10.94759 31158 ft 454 kts 204°
2026-05-07 12:23 56.20136 10.92573 31385 ft 454 kts 204°
2026-05-07 12:23 56.17218 10.90412 31609 ft 454 kts 204°
2026-05-07 12:23 56.14293 10.88252 31835 ft 454 kts 204°
2026-05-07 12:23 56.11373 10.86096 32060 ft 454 kts 204°
2026-05-07 12:24 56.08452 10.83935 32268 ft 454 kts 204°
2026-05-07 12:24 56.05529 10.81768 32458 ft 455 kts 204°
2026-05-07 12:24 56.02602 10.79596 32659 ft 456 kts 204°
2026-05-07 12:24 55.99674 10.77424 32875 ft 456 kts 204°
2026-05-07 12:25 55.96744 10.75255 33099 ft 456 kts 204°
2026-05-07 12:25 55.93813 10.73098 33319 ft 456 kts 204°
2026-05-07 12:25 55.90882 10.70949 33536 ft 456 kts 204°
2026-05-07 12:25 55.87950 10.68807 33759 ft 456 kts 204°
2026-05-07 12:26 55.85014 10.66664 33975 ft 456 kts 204°
2026-05-07 12:26 55.82080 10.64526 34098 ft 455 kts 203°
2026-05-07 12:26 55.79163 10.62400 34117 ft 453 kts 203°
2026-05-07 12:27 55.73337 10.58162 34119 ft 452 kts 203°
2026-05-07 12:27 55.67528 10.53937 34116 ft 452 kts 203°
2026-05-07 12:28 55.61702 10.49723 34113 ft 452 kts 203°
2026-05-07 12:28 55.55885 10.45530 34114 ft 452 kts 203°
2026-05-07 12:29 55.50064 10.41340 34109 ft 451 kts 203°
2026-05-07 12:29 55.44248 10.37169 34107 ft 451 kts 202°
2026-05-07 12:30 55.38424 10.33018 34100 ft 451 kts 202°
2026-05-07 12:30 55.32607 10.28881 34104 ft 451 kts 202°
2026-05-07 12:31 55.26786 10.24757 34103 ft 451 kts 202°
2026-05-07 12:31 55.20967 10.20638 34105 ft 451 kts 202°
2026-05-07 12:32 55.15152 10.16539 34107 ft 451 kts 202°
2026-05-07 12:32 55.09330 10.12456 34110 ft 451 kts 202°
2026-05-07 12:33 55.00599 10.06358 34105 ft 450 kts 202°
2026-05-07 12:33 54.94788 10.02293 34106 ft 450 kts 204°
2026-05-07 12:34 54.89492 9.96574 34102 ft 448 kts 222°
2026-05-07 12:34 54.85286 9.88628 34102 ft 447 kts 230°
2026-05-07 12:35 54.81522 9.80062 34114 ft 446 kts 236°
2026-05-07 12:35 54.77921 9.71290 34094 ft 447 kts 235°
2026-05-07 12:36 54.74309 9.62519 34084 ft 448 kts 235°
2026-05-07 12:36 54.70714 9.53786 34087 ft 449 kts 235°
2026-05-07 12:37 54.67061 9.44949 34088 ft 449 kts 235°
2026-05-07 12:37 54.63417 9.36189 34079 ft 449 kts 235°
2026-05-07 12:38 54.59772 9.27434 34073 ft 449 kts 235°
2026-05-07 12:38 54.56119 9.18697 34074 ft 449 kts 235°
2026-05-07 12:39 54.52455 9.09978 34072 ft 450 kts 234°
2026-05-07 12:39 54.48775 9.01258 34071 ft 451 kts 234°
2026-05-07 12:40 54.45093 8.92531 34073 ft 451 kts 234°
2026-05-07 12:40 54.41424 8.83862 34081 ft 451 kts 234°
2026-05-07 12:41 54.37720 8.75181 34093 ft 450 kts 234°
2026-05-07 12:41 54.34023 8.66536 34093 ft 450 kts 234°
2026-05-07 12:42 54.30323 8.57893 34088 ft 449 kts 234°
2026-05-07 12:42 54.27219 8.50683 34100 ft 449 kts 234°
2026-05-07 12:43 54.23489 8.42077 34082 ft 450 kts 232°
2026-05-07 12:43 54.19151 8.34367 34085 ft 451 kts 224°
2026-05-07 12:44 54.14610 8.26998 34097 ft 450 kts 223°
2026-05-07 12:44 54.10087 8.19713 34099 ft 450 kts 223°
2026-05-07 12:45 54.05539 8.12400 34097 ft 450 kts 223°
2026-05-07 12:45 54.00990 8.05079 34096 ft 450 kts 223°
2026-05-07 12:46 53.96435 7.97770 34099 ft 450 kts 224°
2026-05-07 12:46 53.91892 7.90502 34106 ft 449 kts 224°
2026-05-07 12:47 53.87344 7.83257 34097 ft 448 kts 223°
2026-05-07 12:47 53.82794 7.76035 34082 ft 449 kts 223°
2026-05-07 12:48 53.78237 7.68819 34078 ft 449 kts 223°
2026-05-07 12:48 53.73681 7.61609 34080 ft 448 kts 223°
2026-05-07 12:49 53.69132 7.54447 34089 ft 447 kts 223°
2026-05-07 12:49 53.64583 7.47323 34105 ft 446 kts 223°
2026-05-07 12:50 53.60046 7.40225 34096 ft 445 kts 223°
2026-05-07 12:50 53.55509 7.33152 34090 ft 444 kts 223°
2026-05-07 12:51 53.50976 7.26105 34085 ft 443 kts 223°
2026-05-07 12:51 53.46458 7.19100 34098 ft 442 kts 223°
2026-05-07 12:52 53.41941 7.12121 34098 ft 441 kts 223°
2026-05-07 12:52 53.37425 7.05172 34088 ft 440 kts 223°
2026-05-07 12:53 53.32990 6.98125 34086 ft 440 kts 229°
2026-05-07 12:53 53.28958 6.90427 34086 ft 440 kts 229°
2026-05-07 12:54 53.24915 6.82746 34073 ft 440 kts 229°
2026-05-07 12:54 53.20868 6.75074 34083 ft 440 kts 229°
2026-05-07 12:55 53.16814 6.67419 34086 ft 441 kts 229°
2026-05-07 12:55 53.12786 6.59703 34071 ft 442 kts 229°
2026-05-07 12:56 53.08807 6.51866 34051 ft 444 kts 229°
2026-05-07 12:56 53.04809 6.44013 34068 ft 444 kts 229°
2026-05-07 12:57 53.00802 6.36232 34090 ft 443 kts 229°
2026-05-07 12:57 52.96796 6.28491 34090 ft 441 kts 229°
2026-05-07 12:58 52.92798 6.20791 34084 ft 440 kts 229°
2026-05-07 12:58 52.88821 6.13158 34080 ft 440 kts 229°
2026-05-07 12:59 52.84821 6.05489 34078 ft 440 kts 229°
2026-05-07 12:59 52.80820 5.97846 34082 ft 439 kts 229°
2026-05-07 13:00 52.76826 5.90242 34075 ft 438 kts 229°
2026-05-07 13:00 52.72824 5.82651 34071 ft 438 kts 229°
2026-05-07 13:01 52.68828 5.75079 34077 ft 438 kts 229°
2026-05-07 13:01 52.64822 5.67525 34068 ft 438 kts 229°
2026-05-07 13:02 52.60814 5.59996 34098 ft 436 kts 229°
2026-05-07 13:02 52.56828 5.52529 34111 ft 434 kts 229°
2026-05-07 13:03 52.52846 5.45116 34096 ft 432 kts 228°
2026-05-07 13:03 52.48768 5.37856 34078 ft 432 kts 221°
2026-05-07 13:04 52.43729 5.32556 34070 ft 432 kts 203°
2026-05-07 13:04 52.38112 5.29000 34069 ft 433 kts 202°
2026-05-07 13:05 52.32495 5.25476 34081 ft 432 kts 201°
2026-05-07 13:05 52.26884 5.21948 34078 ft 432 kts 201°
2026-05-07 13:06 52.21277 5.18427 34076 ft 432 kts 201°
2026-05-07 13:06 52.15669 5.14923 34073 ft 432 kts 202°
2026-05-07 13:07 52.10063 5.11437 34079 ft 431 kts 202°
2026-05-07 13:07 52.04461 5.07951 34068 ft 432 kts 202°
2026-05-07 13:08 52.01653 5.06198 33517 ft 435 kts 202°
2026-05-07 13:08 51.98812 5.04430 32328 ft 437 kts 202°
2026-05-07 13:08 51.95975 5.02673 31155 ft 435 kts 201°
2026-05-07 13:08 51.93167 5.00942 30147 ft 429 kts 201°
2026-05-07 13:09 51.90403 4.99242 29064 ft 422 kts 201°
2026-05-07 13:09 51.87691 4.97578 28497 ft 413 kts 201°
2026-05-07 13:09 51.85027 4.95942 27998 ft 408 kts 201°
2026-05-07 13:09 51.82389 4.94321 27510 ft 403 kts 202°
2026-05-07 13:10 51.79786 4.92718 27010 ft 398 kts 202°
2026-05-07 13:10 51.77213 4.91139 26543 ft 394 kts 201°
2026-05-07 13:10 51.74697 4.89597 26088 ft 390 kts 201°
2026-05-07 13:10 51.72174 4.88052 25638 ft 386 kts 201°
2026-05-07 13:11 51.69673 4.86525 25182 ft 383 kts 201°
2026-05-07 13:11 51.67190 4.85012 24740 ft 380 kts 201°
2026-05-07 13:11 51.64726 4.83514 24299 ft 377 kts 201°
2026-05-07 13:11 51.62277 4.82029 23845 ft 375 kts 201°
2026-05-07 13:12 51.59867 4.80455 23341 ft 373 kts 208°
2026-05-07 13:12 51.57700 4.78232 22884 ft 368 kts 220°
2026-05-07 13:12 51.55886 4.75378 22433 ft 363 kts 231°
2026-05-07 13:12 51.54461 4.72057 21978 ft 360 kts 238°
2026-05-07 13:13 51.53143 4.68658 21528 ft 358 kts 238°
2026-05-07 13:13 51.51825 4.65284 21081 ft 355 kts 238°
2026-05-07 13:13 51.50513 4.61935 20632 ft 353 kts 238°
2026-05-07 13:13 51.49210 4.58613 20178 ft 351 kts 238°
2026-05-07 13:14 51.47912 4.55305 19737 ft 350 kts 238°
2026-05-07 13:14 51.46619 4.52011 19297 ft 348 kts 238°
2026-05-07 13:14 51.45329 4.48731 18857 ft 347 kts 238°
2026-05-07 13:14 51.44044 4.45466 18416 ft 346 kts 238°
2026-05-07 13:15 51.42762 4.42209 17941 ft 345 kts 238°
2026-05-07 13:15 51.41413 4.39049 17518 ft 342 kts 230°
2026-05-07 13:15 51.39711 4.36413 17093 ft 341 kts 218°
2026-05-07 13:15 51.37693 4.34446 16677 ft 340 kts 206°
2026-05-07 13:16 51.35558 4.32843 16255 ft 338 kts 206°
2026-05-07 13:16 51.33440 4.31240 15858 ft 336 kts 206°
2026-05-07 13:16 51.31333 4.29635 15448 ft 335 kts 206°
2026-05-07 13:16 51.29239 4.28036 15048 ft 333 kts 206°
2026-05-07 13:17 51.27148 4.26444 14651 ft 333 kts 206°
2026-05-07 13:17 51.25052 4.24857 14232 ft 333 kts 206°
2026-05-07 13:17 51.22965 4.23280 13817 ft 332 kts 206°
2026-05-07 13:17 51.20882 4.21706 13382 ft 330 kts 206°
2026-05-07 13:18 51.18815 4.20143 12973 ft 328 kts 206°
2026-05-07 13:18 51.16761 4.18592 12560 ft 326 kts 206°
2026-05-07 13:18 51.14729 4.17026 12149 ft 323 kts 207°
2026-05-07 13:18 51.12722 4.15420 11723 ft 322 kts 207°
2026-05-07 13:19 51.10734 4.13805 11309 ft 320 kts 207°
2026-05-07 13:19 51.08761 4.12193 10888 ft 318 kts 207°
2026-05-07 13:19 51.06797 4.10591 10472 ft 316 kts 207°
2026-05-07 13:19 51.04856 4.09014 10204 ft 309 kts 207°
2026-05-07 13:20 51.02993 4.07507 10037 ft 292 kts 207°
2026-05-07 13:20 51.01212 4.06077 9549 ft 282 kts 207°
2026-05-07 13:20 50.99475 4.04690 9386 ft 281 kts 207°
2026-05-07 13:20 50.97736 4.03298 9069 ft 279 kts 207°
2026-05-07 13:21 50.96011 4.01917 8710 ft 277 kts 206°
2026-05-07 13:21 50.94201 4.00906 8336 ft 276 kts 189°
2026-05-07 13:21 50.92295 4.00867 7966 ft 275 kts 171°
2026-05-07 13:21 50.90477 4.01805 7527 ft 276 kts 152°
2026-05-07 13:22 50.88876 4.03489 7099 ft 277 kts 145°
2026-05-07 13:22 50.87300 4.05247 6653 ft 277 kts 145°
2026-05-07 13:22 50.85725 4.06999 6208 ft 276 kts 145°
2026-05-07 13:22 50.84185 4.08709 5778 ft 265 kts 145°
2026-05-07 13:23 50.82729 4.10328 5376 ft 253 kts 144°
2026-05-07 13:23 50.81532 4.12245 4979 ft 243 kts 117°
2026-05-07 13:23 50.81185 4.14843 4529 ft 239 kts 82°
2026-05-07 13:23 50.81728 4.17249 4158 ft 229 kts 62°
2026-05-07 13:24 50.82404 4.19452 3809 ft 222 kts 65°
2026-05-07 13:24 50.83028 4.21645 3471 ft 215 kts 65°
2026-05-07 13:24 50.83623 4.23770 3136 ft 208 kts 65°
2026-05-07 13:24 50.84202 4.25828 2852 ft 200 kts 65°
2026-05-07 13:25 50.84759 4.27780 2594 ft 192 kts 65°
2026-05-07 13:25 50.85313 4.29714 2327 ft 188 kts 65°
2026-05-07 13:25 50.85833 4.31515 2085 ft 176 kts 64°
2026-05-07 13:25 50.86323 4.33210 1882 ft 166 kts 64°
2026-05-07 13:26 50.86794 4.34844 1655 ft 162 kts 65°
2026-05-07 13:26 50.87259 4.36461 1445 ft 160 kts 64°
2026-05-07 13:26 50.87709 4.38023 1224 ft 151 kts 65°
2026-05-07 13:26 50.88135 4.39500 1026 ft 145 kts 64°
2026-05-07 13:27 50.88554 4.40941 835 ft 143 kts 65°
2026-05-07 13:27 50.88970 4.42369 649 ft 142 kts 65°
2026-05-07 13:27 50.89381 4.43784 465 ft 141 kts 65°
2026-05-07 13:27 50.89783 4.45190 295 ft 140 kts 65°
2026-05-07 13:28 50.90056 4.46137 174 ft 139 kts 65°
2026-05-07 13:28 50.90411 4.47366 137 ft 90 kts 65°
2026-05-07 13:28 50.90585 4.47970 142 ft 44 kts 65°
2026-05-07 13:28 50.90654 4.48294 138 ft 23 kts 105°
2026-05-07 13:29 50.90601 4.48452 138 ft 8 kts 120°
2026-05-07 13:29 50.90575 4.48523 136 ft 8 kts 120°
2026-05-07 13:29 50.90537 4.48591 135 ft 8 kts 159°
2026-05-07 13:29 50.90502 4.48567 135 ft 5 kts 234°
2026-05-07 13:30 50.90484 4.48508 135 ft 9 kts 245°
2026-05-07 13:30 50.90458 4.48421 137 ft 0 kts 246°
2026-05-07 13:31 50.90456 4.48414 137 ft 3 kts 246°
2026-05-07 13:31 50.90434 4.48381 137 ft 4 kts 195°
2026-05-07 13:31 50.90388 4.48409 138 ft 7 kts 153°
2026-05-07 13:31 50.90368 4.48425 138 ft 2 kts 153°
2026-05-07 13:32 50.90362 4.48430 138 ft 0 kts 153°